owner,sensor,date,latitude,longitude,vertical_datum,wind_speed,wind_to_direction,wind_speed_of_gust,qcFlag 
DISL,ioos:station:DISL:BSCA:1,2014-02-01T00:00:00Z,30.3288,-87.8293,0.0,0.45,178.0,-9999.0,'1111122,1111122,1111122' 
DISL,ioos:station:DISL:BSCA:1,2014-02-01T00:30:00Z,30.3288,-87.8293,0.0,2.05,114.7,-9999.0,'1111122,1111122,1111122' 
DISL,ioos:station:DISL:BSCA:1,2014-02-01T01:00:00Z,30.3288,-87.8293,0.0,2.24,93.7,-9999.0,'1111122,1111122,1111122' 
DISL,ioos:station:DISL:BSCA:1,2014-02-01T01:30:00Z,30.3288,-87.8293,0.0,2.66,81.2,-9999.0,'1111122,1111122,1111122' 
DISL,ioos:station:DISL:BSCA:1,2014-02-01T02:00:00Z,30.3288,-87.8293,0.0,2.92,97.3,-9999.0,'1111122,1111122,1111122' 
DISL,ioos:station:DISL:BSCA:1,2014-02-01T02:30:00Z,30.3288,-87.8293,0.0,2.66,49.73,-9999.0,'1111122,1111122,1111122' 
DISL,ioos:station:DISL:BSCA:1,2014-02-01T03:00:00Z,30.3288,-87.8293,0.0,1.81,49.27,-9999.0,'1111122,1111122,1111122' 
DISL,ioos:station:DISL:BSCA:1,2014-02-01T03:30:00Z,30.3288,-87.8293,0.0,1.99,3.99,-9999.0,'1111122,1111122,1111122' 
DISL,ioos:station:DISL:BSCA:1,2014-02-01T04:00:00Z,30.3288,-87.8293,0.0,1.57,17.03,-9999.0,'1111122,1111122,1111122' 
DISL,ioos:station:DISL:BSCA:1,2014-02-01T04:30:00Z,30.3288,-87.8293,0.0,2.04,33.22,-9999.0,'1111122,1111122,1111122' 
DISL,ioos:station:DISL:BSCA:1,2014-02-01T05:00:00Z,30.3288,-87.8293,0.0,1.92,50.96,-9999.0,'1111122,1111122,1111122' 
DISL,ioos:station:DISL:BSCA:1,2014-02-01T05:30:00Z,30.3288,-87.8293,0.0,1.22,21.37,-9999.0,'1111122,1111122,1111122' 
DISL,ioos:station:DISL:BSCA:1,2014-02-01T06:00:00Z,30.3288,-87.8293,0.0,2.87,122.8,-9999.0,'1111122,1111122,1111122' 
DISL,ioos:station:DISL:BSCA:1,2014-02-01T06:30:00Z,30.3288,-87.8293,0.0,0.8,308.7,-9999.0,'1111122,1111122,1111122' 
DISL,ioos:station:DISL:BSCA:1,2014-02-01T07:00:00Z,30.3288,-87.8293,0.0,1.6,72.75,-9999.0,'1111122,1111122,1111122' 
DISL,ioos:station:DISL:BSCA:1,2014-02-01T07:30:00Z,30.3288,-87.8293,0.0,1.15,82.1,-9999.0,'1111122,1111122,1111122' 
DISL,ioos:station:DISL:BSCA:1,2014-02-01T08:00:00Z,30.3288,-87.8293,0.0,1.9,110.7,-9999.0,'1111122,1111122,1111122' 
DISL,ioos:station:DISL:BSCA:1,2014-02-01T08:30:00Z,30.3288,-87.8293,0.0,2.24,108.2,-9999.0,'1111122,1111122,1111122' 
DISL,ioos:station:DISL:BSCA:1,2014-02-01T09:00:00Z,30.3288,-87.8293,0.0,2.64,101.3,-9999.0,'1111122,1111122,1111122' 
DISL,ioos:station:DISL:BSCA:1,2014-02-01T09:30:00Z,30.3288,-87.8293,0.0,2.66,89.2,-9999.0,'1111122,1111122,1111122' 
DISL,ioos:station:DISL:BSCA:1,2014-02-01T10:00:00Z,30.3288,-87.8293,0.0,1.99,86.9,-9999.0,'1111122,1111122,1111122' 
DISL,ioos:station:DISL:BSCA:1,2014-02-01T10:30:00Z,30.3288,-87.8293,0.0,1.82,74.88,-9999.0,'1111122,1111122,1111122' 
DISL,ioos:station:DISL:BSCA:1,2014-02-01T11:00:00Z,30.3288,-87.8293,0.0,3.2,75.84,-9999.0,'1111122,1111122,1111122' 
DISL,ioos:station:DISL:BSCA:1,2014-02-01T11:30:00Z,30.3288,-87.8293,0.0,4.82,70.42,-9999.0,'1111122,1111122,1111122' 
DISL,ioos:station:DISL:BSCA:1,2014-02-01T12:00:00Z,30.3288,-87.8293,0.0,4.8,72.36,-9999.0,'1111122,1111122,1111122' 
DISL,ioos:station:DISL:BSCA:1,2014-02-01T12:30:00Z,30.3288,-87.8293,0.0,4.9,73.72,-9999.0,'1111122,1111122,1111122' 
DISL,ioos:station:DISL:BSCA:1,2014-02-01T13:00:00Z,30.3288,-87.8293,0.0,4.57,66.08,-9999.0,'1111122,1111122,1111122' 
DISL,ioos:station:DISL:BSCA:1,2014-02-01T13:30:00Z,30.3288,-87.8293,0.0,4.61,68.42,-9999.0,'1111122,1111122,1111122' 
DISL,ioos:station:DISL:BSCA:1,2014-02-01T14:00:00Z,30.3288,-87.8293,0.0,5.29,70.66,-9999.0,'1111122,1111122,1111122' 
DISL,ioos:station:DISL:BSCA:1,2014-02-01T14:30:00Z,30.3288,-87.8293,0.0,4.71,75.48,-9999.0,'1111122,1111122,1111122' 
DISL,ioos:station:DISL:BSCA:1,2014-02-01T15:00:00Z,30.3288,-87.8293,0.0,3.46,93.7,-9999.0,'1111122,1111122,1111122' 
DISL,ioos:station:DISL:BSCA:1,2014-02-01T15:30:00Z,30.3288,-87.8293,0.0,3.01,115.6,-9999.0,'1111122,1111122,1111122' 
DISL,ioos:station:DISL:BSCA:1,2014-02-01T16:00:00Z,30.3288,-87.8293,0.0,3.93,132.0,-9999.0,'1111122,1111122,1111122' 
DISL,ioos:station:DISL:BSCA:1,2014-02-01T16:30:00Z,30.3288,-87.8293,0.0,4.97,135.3,-9999.0,'1111122,1111122,1111122' 
DISL,ioos:station:DISL:BSCA:1,2014-02-01T17:00:00Z,30.3288,-87.8293,0.0,5.12,140.0,-9999.0,'1111122,1111122,1111122' 
DISL,ioos:station:DISL:BSCA:1,2014-02-01T17:30:00Z,30.3288,-87.8293,0.0,5.46,134.0,-9999.0,'1111122,1111122,1111122' 
DISL,ioos:station:DISL:BSCA:1,2014-02-01T18:00:00Z,30.3288,-87.8293,0.0,4.87,135.0,-9999.0,'1111122,1111122,1111122' 
DISL,ioos:station:DISL:BSCA:1,2014-02-01T18:30:00Z,30.3288,-87.8293,0.0,5.69,134.1,-9999.0,'1111122,1111122,1111122' 
DISL,ioos:station:DISL:BSCA:1,2014-02-01T19:00:00Z,30.3288,-87.8293,0.0,5.13,145.4,-9999.0,'1111122,1111122,1111122' 
DISL,ioos:station:DISL:BSCA:1,2014-02-01T19:30:00Z,30.3288,-87.8293,0.0,4.74,142.8,-9999.0,'1111122,1111122,1111122' 
DISL,ioos:station:DISL:BSCA:1,2014-02-01T20:00:00Z,30.3288,-87.8293,0.0,5.02,142.2,-9999.0,'1111122,1111122,1111122' 
DISL,ioos:station:DISL:BSCA:1,2014-02-01T20:30:00Z,30.3288,-87.8293,0.0,4.9,141.4,-9999.0,'1111122,1111122,1111122' 
DISL,ioos:station:DISL:BSCA:1,2014-02-01T21:00:00Z,30.3288,-87.8293,0.0,5.17,138.4,-9999.0,'1111122,1111122,1111122' 
DISL,ioos:station:DISL:BSCA:1,2014-02-01T21:30:00Z,30.3288,-87.8293,0.0,4.67,133.2,-9999.0,'1111122,1111122,1111122' 
DISL,ioos:station:DISL:BSCA:1,2014-02-01T22:00:00Z,30.3288,-87.8293,0.0,5.05,137.7,-9999.0,'1111122,1111122,1111122' 
DISL,ioos:station:DISL:BSCA:1,2014-02-01T22:30:00Z,30.3288,-87.8293,0.0,4.81,130.4,-9999.0,'1111122,1111122,1111122' 
DISL,ioos:station:DISL:BSCA:1,2014-02-01T23:00:00Z,30.3288,-87.8293,0.0,5.06,126.6,-9999.0,'1111122,1111122,1111122' 
DISL,ioos:station:DISL:BSCA:1,2014-02-01T23:30:00Z,30.3288,-87.8293,0.0,5.42,120.9,-9999.0,'1111122,1111122,1111122' 
DISL,ioos:station:DISL:BSCA:1,2014-02-02T00:00:00Z,30.3288,-87.8293,0.0,4.07,105.2,-9999.0,'1111122,1111122,1111122' 
DISL,ioos:station:DISL:BSCA:1,2014-02-02T00:30:00Z,30.3288,-87.8293,0.0,3.87,89.2,-9999.0,'1111122,1111122,1111122' 
DISL,ioos:station:DISL:BSCA:1,2014-02-02T01:00:00Z,30.3288,-87.8293,0.0,4.47,98.8,-9999.0,'1111122,1111122,1111122' 
DISL,ioos:station:DISL:BSCA:1,2014-02-02T01:30:00Z,30.3288,-87.8293,0.0,4.03,98.3,-9999.0,'1111122,1111122,1111122' 
DISL,ioos:station:DISL:BSCA:1,2014-02-02T02:00:00Z,30.3288,-87.8293,0.0,3.96,92.6,-9999.0,'1111122,1111122,1111122' 
DISL,ioos:station:DISL:BSCA:1,2014-02-02T02:30:00Z,30.3288,-87.8293,0.0,4.09,93.0,-9999.0,'1111122,1111122,1111122' 
DISL,ioos:station:DISL:BSCA:1,2014-02-02T03:00:00Z,30.3288,-87.8293,0.0,4.32,97.2,-9999.0,'1111122,1111122,1111122' 
DISL,ioos:station:DISL:BSCA:1,2014-02-02T03:30:00Z,30.3288,-87.8293,0.0,4.38,104.9,-9999.0,'1111122,1111122,1111122' 
DISL,ioos:station:DISL:BSCA:1,2014-02-02T04:00:00Z,30.3288,-87.8293,0.0,4.46,112.6,-9999.0,'1111122,1111122,1111122' 
DISL,ioos:station:DISL:BSCA:1,2014-02-02T04:30:00Z,30.3288,-87.8293,0.0,5.33,117.7,-9999.0,'1111122,1111122,1111122' 
DISL,ioos:station:DISL:BSCA:1,2014-02-02T05:00:00Z,30.3288,-87.8293,0.0,4.14,102.5,-9999.0,'1111122,1111122,1111122' 
DISL,ioos:station:DISL:BSCA:1,2014-02-02T05:30:00Z,30.3288,-87.8293,0.0,4.07,113.4,-9999.0,'1111122,1111122,1111122' 
DISL,ioos:station:DISL:BSCA:1,2014-02-02T06:00:00Z,30.3288,-87.8293,0.0,4.58,112.5,-9999.0,'1111122,1111122,1111122' 
DISL,ioos:station:DISL:BSCA:1,2014-02-02T06:30:00Z,30.3288,-87.8293,0.0,3.89,89.4,-9999.0,'1111122,1111122,1111122' 
DISL,ioos:station:DISL:BSCA:1,2014-02-02T07:00:00Z,30.3288,-87.8293,0.0,3.34,97.4,-9999.0,'1111122,1111122,1111122' 
DISL,ioos:station:DISL:BSCA:1,2014-02-02T07:30:00Z,30.3288,-87.8293,0.0,3.13,96.3,-9999.0,'1111122,1111122,1111122' 
DISL,ioos:station:DISL:BSCA:1,2014-02-02T08:00:00Z,30.3288,-87.8293,0.0,3.94,112.7,-9999.0,'1111122,1111122,1111122' 
DISL,ioos:station:DISL:BSCA:1,2014-02-02T08:30:00Z,30.3288,-87.8293,0.0,3.34,79.08,-9999.0,'1111122,1111122,1111122' 
DISL,ioos:station:DISL:BSCA:1,2014-02-02T09:00:00Z,30.3288,-87.8293,0.0,3.64,106.0,-9999.0,'1111122,1111122,1111122' 
DISL,ioos:station:DISL:BSCA:1,2014-02-02T09:30:00Z,30.3288,-87.8293,0.0,3.31,98.8,-9999.0,'1111122,1111122,1111122' 
DISL,ioos:station:DISL:BSCA:1,2014-02-02T10:00:00Z,30.3288,-87.8293,0.0,4.7,110.5,-9999.0,'1111122,1111122,1111122' 
DISL,ioos:station:DISL:BSCA:1,2014-02-02T10:30:00Z,30.3288,-87.8293,0.0,4.83,124.5,-9999.0,'1111122,1111122,1111122' 
DISL,ioos:station:DISL:BSCA:1,2014-02-02T11:00:00Z,30.3288,-87.8293,0.0,5.13,110.8,-9999.0,'1111122,1111122,1111122' 
DISL,ioos:station:DISL:BSCA:1,2014-02-02T11:30:00Z,30.3288,-87.8293,0.0,5.8,106.5,-9999.0,'1111122,1111122,1111122' 
DISL,ioos:station:DISL:BSCA:1,2014-02-02T12:00:00Z,30.3288,-87.8293,0.0,6.03,109.3,-9999.0,'1111122,1111122,1111122' 
DISL,ioos:station:DISL:BSCA:1,2014-02-02T12:30:00Z,30.3288,-87.8293,0.0,6.22,110.1,-9999.0,'1111122,1111122,1111122' 
DISL,ioos:station:DISL:BSCA:1,2014-02-02T13:00:00Z,30.3288,-87.8293,0.0,6.39,109.4,-9999.0,'1111122,1111122,1111122' 
DISL,ioos:station:DISL:BSCA:1,2014-02-02T13:30:00Z,30.3288,-87.8293,0.0,6.61,111.4,-9999.0,'1111122,1111122,1111122' 
DISL,ioos:station:DISL:BSCA:1,2014-02-02T14:00:00Z,30.3288,-87.8293,0.0,5.75,119.4,-9999.0,'1111122,1111122,1111122' 
DISL,ioos:station:DISL:BSCA:1,2014-02-02T14:30:00Z,30.3288,-87.8293,0.0,6.56,128.6,-9999.0,'1111122,1111122,1111122' 
DISL,ioos:station:DISL:BSCA:1,2014-02-02T15:00:00Z,30.3288,-87.8293,0.0,7.37,131.9,-9999.0,'1111122,1111122,1111122' 
DISL,ioos:station:DISL:BSCA:1,2014-02-02T15:30:00Z,30.3288,-87.8293,0.0,7.43,133.6,-9999.0,'1111122,1111122,1111122' 
DISL,ioos:station:DISL:BSCA:1,2014-02-02T16:00:00Z,30.3288,-87.8293,0.0,7.51,132.7,-9999.0,'1111122,1111122,1111122' 
DISL,ioos:station:DISL:BSCA:1,2014-02-02T16:30:00Z,30.3288,-87.8293,0.0,6.67,130.1,-9999.0,'1111122,1111122,1111122' 
DISL,ioos:station:DISL:BSCA:1,2014-02-02T17:00:00Z,30.3288,-87.8293,0.0,7.47,132.9,-9999.0,'1111122,1111122,1111122' 
DISL,ioos:station:DISL:BSCA:1,2014-02-02T17:30:00Z,30.3288,-87.8293,0.0,7.67,133.3,-9999.0,'1111122,1111122,1111122' 
DISL,ioos:station:DISL:BSCA:1,2014-02-02T18:00:00Z,30.3288,-87.8293,0.0,7.41,136.1,-9999.0,'1111122,1111122,1111122' 
DISL,ioos:station:DISL:BSCA:1,2014-02-02T18:30:00Z,30.3288,-87.8293,0.0,7.32,131.8,-9999.0,'1111122,1111122,1111122' 
DISL,ioos:station:DISL:BSCA:1,2014-02-02T19:00:00Z,30.3288,-87.8293,0.0,7.1,130.7,-9999.0,'1111122,1111122,1111122' 
DISL,ioos:station:DISL:BSCA:1,2014-02-02T19:30:00Z,30.3288,-87.8293,0.0,6.64,126.9,-9999.0,'1111122,1111122,1111122' 
DISL,ioos:station:DISL:BSCA:1,2014-02-02T20:00:00Z,30.3288,-87.8293,0.0,6.43,126.6,-9999.0,'1111122,1111122,1111122' 
DISL,ioos:station:DISL:BSCA:1,2014-02-02T20:30:00Z,30.3288,-87.8293,0.0,6.76,133.3,-9999.0,'1111122,1111122,1111122' 
DISL,ioos:station:DISL:BSCA:1,2014-02-02T21:00:00Z,30.3288,-87.8293,0.0,6.8,133.9,-9999.0,'1111122,1111122,1111122' 
DISL,ioos:station:DISL:BSCA:1,2014-02-02T21:30:00Z,30.3288,-87.8293,0.0,6.11,130.7,-9999.0,'1111122,1111122,1111122' 
DISL,ioos:station:DISL:BSCA:1,2014-02-02T22:00:00Z,30.3288,-87.8293,0.0,6.79,131.2,-9999.0,'1111122,1111122,1111122' 
DISL,ioos:station:DISL:BSCA:1,2014-02-02T22:30:00Z,30.3288,-87.8293,0.0,6.59,132.3,-9999.0,'1111122,1111122,1111122' 
DISL,ioos:station:DISL:BSCA:1,2014-02-02T23:00:00Z,30.3288,-87.8293,0.0,6.45,131.7,-9999.0,'1111122,1111122,1111122' 
DISL,ioos:station:DISL:BSCA:1,2014-02-02T23:30:00Z,30.3288,-87.8293,0.0,6.16,131.2,-9999.0,'1111122,1111122,1111122' 
DISL,ioos:station:DISL:BSCA:1,2014-02-03T00:00:00Z,30.3288,-87.8293,0.0,6.16,131.5,-9999.0,'1111122,1111122,1111122' 
DISL,ioos:station:DISL:BSCA:1,2014-02-03T00:30:00Z,30.3288,-87.8293,0.0,5.83,132.0,-9999.0,'1111122,1111122,1111122' 
DISL,ioos:station:DISL:BSCA:1,2014-02-03T01:00:00Z,30.3288,-87.8293,0.0,6.05,140.1,-9999.0,'1111122,1111122,1111122' 
DISL,ioos:station:DISL:BSCA:1,2014-02-03T01:30:00Z,30.3288,-87.8293,0.0,5.6,150.3,-9999.0,'1111122,1111122,1111122' 
DISL,ioos:station:DISL:BSCA:1,2014-02-03T02:00:00Z,30.3288,-87.8293,0.0,5.25,150.7,-9999.0,'1111122,1111122,1111122' 
DISL,ioos:station:DISL:BSCA:1,2014-02-03T02:30:00Z,30.3288,-87.8293,0.0,4.69,161.3,-9999.0,'1111122,1111122,1111122' 
DISL,ioos:station:DISL:BSCA:1,2014-02-03T03:00:00Z,30.3288,-87.8293,0.0,6.87,170.1,-9999.0,'1111122,1111122,1111122' 
DISL,ioos:station:DISL:BSCA:1,2014-02-03T03:30:00Z,30.3288,-87.8293,0.0,6.66,180.8,-9999.0,'1111122,1111122,1111122' 
DISL,ioos:station:DISL:BSCA:1,2014-02-03T04:00:00Z,30.3288,-87.8293,0.0,6.12,184.6,-9999.0,'1111122,1111122,1111122' 
DISL,ioos:station:DISL:BSCA:1,2014-02-03T04:30:00Z,30.3288,-87.8293,0.0,5.76,195.5,-9999.0,'1111122,1111122,1111122' 
DISL,ioos:station:DISL:BSCA:1,2014-02-03T05:00:00Z,30.3288,-87.8293,0.0,5.16,190.4,-9999.0,'1111122,1111122,1111122' 
DISL,ioos:station:DISL:BSCA:1,2014-02-03T05:30:00Z,30.3288,-87.8293,0.0,4.61,192.7,-9999.0,'1111122,1111122,1111122' 
DISL,ioos:station:DISL:BSCA:1,2014-02-03T06:00:00Z,30.3288,-87.8293,0.0,5.41,192.0,-9999.0,'1111122,1111122,1111122' 
DISL,ioos:station:DISL:BSCA:1,2014-02-03T06:30:00Z,30.3288,-87.8293,0.0,4.57,190.5,-9999.0,'1111122,1111122,1111122' 
DISL,ioos:station:DISL:BSCA:1,2014-02-03T07:00:00Z,30.3288,-87.8293,0.0,4.92,183.9,-9999.0,'1111122,1111122,1111122' 
DISL,ioos:station:DISL:BSCA:1,2014-02-03T07:30:00Z,30.3288,-87.8293,0.0,5.15,194.7,-9999.0,'1111122,1111122,1111122' 
DISL,ioos:station:DISL:BSCA:1,2014-02-03T08:00:00Z,30.3288,-87.8293,0.0,5.01,194.1,-9999.0,'1111122,1111122,1111122' 
DISL,ioos:station:DISL:BSCA:1,2014-02-03T08:30:00Z,30.3288,-87.8293,0.0,4.82,192.5,-9999.0,'1111122,1111122,1111122' 
DISL,ioos:station:DISL:BSCA:1,2014-02-03T09:00:00Z,30.3288,-87.8293,0.0,5.17,193.9,-9999.0,'1111122,1111122,1111122' 
DISL,ioos:station:DISL:BSCA:1,2014-02-03T09:30:00Z,30.3288,-87.8293,0.0,5.13,198.2,-9999.0,'1111122,1111122,1111122' 
DISL,ioos:station:DISL:BSCA:1,2014-02-03T10:00:00Z,30.3288,-87.8293,0.0,5.49,197.3,-9999.0,'1111122,1111122,1111122' 
DISL,ioos:station:DISL:BSCA:1,2014-02-03T10:30:00Z,30.3288,-87.8293,0.0,6.99,258.7,-9999.0,'1111122,1111122,1111122' 
DISL,ioos:station:DISL:BSCA:1,2014-02-03T11:00:00Z,30.3288,-87.8293,0.0,5.47,260.2,-9999.0,'1111122,1111122,1111122' 
DISL,ioos:station:DISL:BSCA:1,2014-02-03T11:30:00Z,30.3288,-87.8293,0.0,2.97,286.6,-9999.0,'1111122,1111122,1111122' 
DISL,ioos:station:DISL:BSCA:1,2014-02-03T12:00:00Z,30.3288,-87.8293,0.0,3.25,314.4,-9999.0,'1111122,1111122,1111122' 
DISL,ioos:station:DISL:BSCA:1,2014-02-03T12:30:00Z,30.3288,-87.8293,0.0,4.35,358.5,-9999.0,'1111122,1111122,1111122' 
DISL,ioos:station:DISL:BSCA:1,2014-02-03T13:00:00Z,30.3288,-87.8293,0.0,5.54,355.1,-9999.0,'1111122,1111122,1111122' 
DISL,ioos:station:DISL:BSCA:1,2014-02-03T13:30:00Z,30.3288,-87.8293,0.0,4.76,333.2,-9999.0,'1111122,1111122,1111122' 
DISL,ioos:station:DISL:BSCA:1,2014-02-03T14:00:00Z,30.3288,-87.8293,0.0,7.41,352.1,-9999.0,'1111122,1111122,1111122' 
DISL,ioos:station:DISL:BSCA:1,2014-02-03T14:30:00Z,30.3288,-87.8293,0.0,5.86,350.8,-9999.0,'1111122,1111122,1111122' 
DISL,ioos:station:DISL:BSCA:1,2014-02-03T15:00:00Z,30.3288,-87.8293,0.0,7.25,359.5,-9999.0,'1111122,1111122,1111122' 
DISL,ioos:station:DISL:BSCA:1,2014-02-03T15:30:00Z,30.3288,-87.8293,0.0,6.56,1.058,-9999.0,'1111122,1111122,1111122' 
DISL,ioos:station:DISL:BSCA:1,2014-02-03T16:00:00Z,30.3288,-87.8293,0.0,7.11,22.27,-9999.0,'1111122,1111122,1111122' 
DISL,ioos:station:DISL:BSCA:1,2014-02-03T16:30:00Z,30.3288,-87.8293,0.0,6.14,18.96,-9999.0,'1111122,1111122,1111122' 
DISL,ioos:station:DISL:BSCA:1,2014-02-03T17:00:00Z,30.3288,-87.8293,0.0,5.03,21.84,-9999.0,'1111122,1111122,1111122' 
DISL,ioos:station:DISL:BSCA:1,2014-02-03T17:30:00Z,30.3288,-87.8293,0.0,4.65,20.46,-9999.0,'1111122,1111122,1111122' 
DISL,ioos:station:DISL:BSCA:1,2014-02-03T18:00:00Z,30.3288,-87.8293,0.0,5.81,16.97,-9999.0,'1111122,1111122,1111122' 
DISL,ioos:station:DISL:BSCA:1,2014-02-03T18:30:00Z,30.3288,-87.8293,0.0,6.45,32.11,-9999.0,'1111122,1111122,1111122' 
DISL,ioos:station:DISL:BSCA:1,2014-02-03T19:00:00Z,30.3288,-87.8293,0.0,5.02,7.024,-9999.0,'1111122,1111122,1111122' 
DISL,ioos:station:DISL:BSCA:1,2014-02-03T19:30:00Z,30.3288,-87.8293,0.0,5.85,4.308,-9999.0,'1111122,1111122,1111122' 
DISL,ioos:station:DISL:BSCA:1,2014-02-03T20:00:00Z,30.3288,-87.8293,0.0,5.24,6.725,-9999.0,'1111122,1111122,1111122' 
DISL,ioos:station:DISL:BSCA:1,2014-02-03T20:30:00Z,30.3288,-87.8293,0.0,4.59,17.38,-9999.0,'1111122,1111122,1111122' 
DISL,ioos:station:DISL:BSCA:1,2014-02-03T21:00:00Z,30.3288,-87.8293,0.0,5.46,19.21,-9999.0,'1111122,1111122,1111122' 
DISL,ioos:station:DISL:BSCA:1,2014-02-03T21:30:00Z,30.3288,-87.8293,0.0,6.21,14.99,-9999.0,'1111122,1111122,1111122' 
DISL,ioos:station:DISL:BSCA:1,2014-02-03T22:00:00Z,30.3288,-87.8293,0.0,5.79,19.37,-9999.0,'1111122,1111122,1111122' 
DISL,ioos:station:DISL:BSCA:1,2014-02-03T22:30:00Z,30.3288,-87.8293,0.0,6.65,22.49,-9999.0,'1111122,1111122,1111122' 
DISL,ioos:station:DISL:BSCA:1,2014-02-03T23:00:00Z,30.3288,-87.8293,0.0,5.79,23.31,-9999.0,'1111122,1111122,1111122' 
DISL,ioos:station:DISL:BSCA:1,2014-02-03T23:30:00Z,30.3288,-87.8293,0.0,5.1,39.8,-9999.0,'1111122,1111122,1111122' 
DISL,ioos:station:DISL:BSCA:1,2014-02-04T00:00:00Z,30.3288,-87.8293,0.0,5.17,29.47,-9999.0,'1111122,1111122,1111122' 
DISL,ioos:station:DISL:BSCA:1,2014-02-04T00:30:00Z,30.3288,-87.8293,0.0,5.05,19.91,-9999.0,'1111122,1111122,1111122' 
DISL,ioos:station:DISL:BSCA:1,2014-02-04T01:00:00Z,30.3288,-87.8293,0.0,5.31,18.12,-9999.0,'1111122,1111122,1111122' 
DISL,ioos:station:DISL:BSCA:1,2014-02-04T01:30:00Z,30.3288,-87.8293,0.0,5.72,27.71,-9999.0,'1111122,1111122,1111122' 
DISL,ioos:station:DISL:BSCA:1,2014-02-04T02:00:00Z,30.3288,-87.8293,0.0,5.25,18.98,-9999.0,'1111122,1111122,1111122' 
DISL,ioos:station:DISL:BSCA:1,2014-02-04T02:30:00Z,30.3288,-87.8293,0.0,5.01,18.47,-9999.0,'1111122,1111122,1111122' 
DISL,ioos:station:DISL:BSCA:1,2014-02-04T03:00:00Z,30.3288,-87.8293,0.0,5.84,27.33,-9999.0,'1111122,1111122,1111122' 
DISL,ioos:station:DISL:BSCA:1,2014-02-04T03:30:00Z,30.3288,-87.8293,0.0,4.83,33.28,-9999.0,'1111122,1111122,1111122' 
DISL,ioos:station:DISL:BSCA:1,2014-02-04T04:00:00Z,30.3288,-87.8293,0.0,5.1,18.07,-9999.0,'1111122,1111122,1111122' 
DISL,ioos:station:DISL:BSCA:1,2014-02-04T04:30:00Z,30.3288,-87.8293,0.0,4.93,30.04,-9999.0,'1111122,1111122,1111122' 
DISL,ioos:station:DISL:BSCA:1,2014-02-04T05:00:00Z,30.3288,-87.8293,0.0,6.11,25.55,-9999.0,'1111122,1111122,1111122' 
DISL,ioos:station:DISL:BSCA:1,2014-02-04T05:30:00Z,30.3288,-87.8293,0.0,5.72,30.98,-9999.0,'1111122,1111122,1111122' 
DISL,ioos:station:DISL:BSCA:1,2014-02-04T06:00:00Z,30.3288,-87.8293,0.0,4.88,28.46,-9999.0,'1111122,1111122,1111122' 
DISL,ioos:station:DISL:BSCA:1,2014-02-04T06:30:00Z,30.3288,-87.8293,0.0,4.67,31.66,-9999.0,'1111122,1111122,1111122' 
DISL,ioos:station:DISL:BSCA:1,2014-02-04T07:00:00Z,30.3288,-87.8293,0.0,3.65,43.39,-9999.0,'1111122,1111122,1111122' 
DISL,ioos:station:DISL:BSCA:1,2014-02-04T07:30:00Z,30.3288,-87.8293,0.0,3.71,43.65,-9999.0,'1111122,1111122,1111122' 
DISL,ioos:station:DISL:BSCA:1,2014-02-04T08:00:00Z,30.3288,-87.8293,0.0,3.61,42.23,-9999.0,'1111122,1111122,1111122' 
DISL,ioos:station:DISL:BSCA:1,2014-02-04T08:30:00Z,30.3288,-87.8293,0.0,2.81,50.05,-9999.0,'1111122,1111122,1111122' 
DISL,ioos:station:DISL:BSCA:1,2014-02-04T09:00:00Z,30.3288,-87.8293,0.0,3.3,51.49,-9999.0,'1111122,1111122,1111122' 
DISL,ioos:station:DISL:BSCA:1,2014-02-04T09:30:00Z,30.3288,-87.8293,0.0,3.08,35.93,-9999.0,'1111122,1111122,1111122' 
DISL,ioos:station:DISL:BSCA:1,2014-02-04T10:00:00Z,30.3288,-87.8293,0.0,3.38,26.36,-9999.0,'1111122,1111122,1111122' 
DISL,ioos:station:DISL:BSCA:1,2014-02-04T10:30:00Z,30.3288,-87.8293,0.0,2.81,43.1,-9999.0,'1111122,1111122,1111122' 
DISL,ioos:station:DISL:BSCA:1,2014-02-04T11:00:00Z,30.3288,-87.8293,0.0,3.26,58.77,-9999.0,'1111122,1111122,1111122' 
DISL,ioos:station:DISL:BSCA:1,2014-02-04T11:30:00Z,30.3288,-87.8293,0.0,4.26,75.12,-9999.0,'1111122,1111122,1111122' 
DISL,ioos:station:DISL:BSCA:1,2014-02-04T12:00:00Z,30.3288,-87.8293,0.0,4.31,82.6,-9999.0,'1111122,1111122,1111122' 
DISL,ioos:station:DISL:BSCA:1,2014-02-04T12:30:00Z,30.3288,-87.8293,0.0,4.05,92.5,-9999.0,'1111122,1111122,1111122' 
DISL,ioos:station:DISL:BSCA:1,2014-02-04T13:00:00Z,30.3288,-87.8293,0.0,3.29,99.7,-9999.0,'1111122,1111122,1111122' 
DISL,ioos:station:DISL:BSCA:1,2014-02-04T13:30:00Z,30.3288,-87.8293,0.0,2.83,94.0,-9999.0,'1111122,1111122,1111122' 
DISL,ioos:station:DISL:BSCA:1,2014-02-04T14:00:00Z,30.3288,-87.8293,0.0,2.59,70.78,-9999.0,'1111122,1111122,1111122' 
DISL,ioos:station:DISL:BSCA:1,2014-02-04T14:30:00Z,30.3288,-87.8293,0.0,2.76,104.9,-9999.0,'1111122,1111122,1111122' 
DISL,ioos:station:DISL:BSCA:1,2014-02-04T15:00:00Z,30.3288,-87.8293,0.0,2.79,109.6,-9999.0,'1111122,1111122,1111122' 
DISL,ioos:station:DISL:BSCA:1,2014-02-04T15:30:00Z,30.3288,-87.8293,0.0,3.66,118.3,-9999.0,'1111122,1111122,1111122' 
DISL,ioos:station:DISL:BSCA:1,2014-02-04T16:00:00Z,30.3288,-87.8293,0.0,3.9,117.9,-9999.0,'1111122,1111122,1111122' 
DISL,ioos:station:DISL:BSCA:1,2014-02-04T16:30:00Z,30.3288,-87.8293,0.0,2.85,145.8,-9999.0,'1111122,1111122,1111122' 
DISL,ioos:station:DISL:BSCA:1,2014-02-04T17:00:00Z,30.3288,-87.8293,0.0,2.93,130.4,-9999.0,'1111122,1111122,1111122' 
DISL,ioos:station:DISL:BSCA:1,2014-02-04T17:30:00Z,30.3288,-87.8293,0.0,5.1,122.3,-9999.0,'1111122,1111122,1111122' 
DISL,ioos:station:DISL:BSCA:1,2014-02-04T18:00:00Z,30.3288,-87.8293,0.0,4.17,126.7,-9999.0,'1111122,1111122,1111122' 
DISL,ioos:station:DISL:BSCA:1,2014-02-04T18:30:00Z,30.3288,-87.8293,0.0,5.21,128.4,-9999.0,'1111122,1111122,1111122' 
DISL,ioos:station:DISL:BSCA:1,2014-02-04T19:00:00Z,30.3288,-87.8293,0.0,5.09,137.0,-9999.0,'1111122,1111122,1111122' 
DISL,ioos:station:DISL:BSCA:1,2014-02-04T19:30:00Z,30.3288,-87.8293,0.0,4.15,137.5,-9999.0,'1111122,1111122,1111122' 
DISL,ioos:station:DISL:BSCA:1,2014-02-04T20:00:00Z,30.3288,-87.8293,0.0,4.22,148.4,-9999.0,'1111122,1111122,1111122' 
DISL,ioos:station:DISL:BSCA:1,2014-02-04T20:30:00Z,30.3288,-87.8293,0.0,4.24,152.7,-9999.0,'1111122,1111122,1111122' 
DISL,ioos:station:DISL:BSCA:1,2014-02-04T21:00:00Z,30.3288,-87.8293,0.0,3.09,144.8,-9999.0,'1111122,1111122,1111122' 
DISL,ioos:station:DISL:BSCA:1,2014-02-04T21:30:00Z,30.3288,-87.8293,0.0,3.35,146.9,-9999.0,'1111122,1111122,1111122' 
DISL,ioos:station:DISL:BSCA:1,2014-02-04T22:00:00Z,30.3288,-87.8293,0.0,4.33,135.4,-9999.0,'1111122,1111122,1111122' 
DISL,ioos:station:DISL:BSCA:1,2014-02-04T22:30:00Z,30.3288,-87.8293,0.0,4.1,145.4,-9999.0,'1111122,1111122,1111122' 
DISL,ioos:station:DISL:BSCA:1,2014-02-04T23:00:00Z,30.3288,-87.8293,0.0,5.91,142.5,-9999.0,'1111122,1111122,1111122' 
DISL,ioos:station:DISL:BSCA:1,2014-02-04T23:30:00Z,30.3288,-87.8293,0.0,5.93,143.5,-9999.0,'1111122,1111122,1111122' 
DISL,ioos:station:DISL:BSCA:1,2014-02-05T00:00:00Z,30.3288,-87.8293,0.0,5.07,144.0,-9999.0,'1111122,1111122,1111122' 
DISL,ioos:station:DISL:BSCA:1,2014-02-05T00:30:00Z,30.3288,-87.8293,0.0,4.76,143.9,-9999.0,'1111122,1111122,1111122' 
DISL,ioos:station:DISL:BSCA:1,2014-02-05T01:00:00Z,30.3288,-87.8293,0.0,5.47,155.0,-9999.0,'1111122,1111122,1111122' 
DISL,ioos:station:DISL:BSCA:1,2014-02-05T01:30:00Z,30.3288,-87.8293,0.0,5.76,158.3,-9999.0,'1111122,1111122,1111122' 
DISL,ioos:station:DISL:BSCA:1,2014-02-05T02:00:00Z,30.3288,-87.8293,0.0,7.21,159.2,-9999.0,'1111122,1111122,1111122' 
DISL,ioos:station:DISL:BSCA:1,2014-02-05T02:30:00Z,30.3288,-87.8293,0.0,7.04,174.4,-9999.0,'1111122,1111122,1111122' 
DISL,ioos:station:DISL:BSCA:1,2014-02-05T03:00:00Z,30.3288,-87.8293,0.0,6.44,167.2,-9999.0,'1111122,1111122,1111122' 
DISL,ioos:station:DISL:BSCA:1,2014-02-05T03:30:00Z,30.3288,-87.8293,0.0,6.59,178.1,-9999.0,'1111122,1111122,1111122' 
DISL,ioos:station:DISL:BSCA:1,2014-02-05T04:00:00Z,30.3288,-87.8293,0.0,7.82,179.9,-9999.0,'1111122,1111122,1111122' 
DISL,ioos:station:DISL:BSCA:1,2014-02-05T04:30:00Z,30.3288,-87.8293,0.0,8.06,183.6,-9999.0,'1111122,1111122,1111122' 